Back to catalog

COSMOS 1275 DEB

AlivePO
NORAD 39956·DEBRIS·🇷🇺 Russia

Launched Jun 4, 1981 from Plesetsk Cosmodrome

Loading…

Next Passes (next 24 hours)

TLE

FreshSource: Space-Track

Epoch: Sep 13, 2026, 14:32 UTC

1 39956U 81053NS  26256.60590022  .00001064  00000-0  10068-2 0  9992
2 39956  83.0174 207.8976 0124398  44.7447 316.3663 13.76837974614478

Track COSMOS 1275 DEB in real time with AllMySat

Download on the App Store